Weather Roundup
Issued by NWS

Home | Current Version | Previous Version | Text Only | Print | Product List | Glossary On
Versions: 1 2 3 4 5 6 7 8 9 10 11 12 13 14 15 16 17 18 19 20 21 22 23 24 25 26 27 28 29 30 31 32 33 34 35 36 37 38 39 40 41 42 43 44 45 46 47 48 49 50
000
NZUS93 KARX 221959
HRRWXR

CURRENT HOURLY OBSERVATIONS ACROSS
MUCH OF THE UPPER MISSISSIPPI VALLEY
NATIONAL WEATHER SERVICE LA CROSSE WI
200 PM CST SAT NOV 22 2014


...SOUTHEAST MINNESOTA...


CITY           SKY/WX    TMP DP  RH WIND       PRES   REMARKS
ROCHESTER      FOG       36  35  96 S17       29.71F VSB 1   WCI  26
ROCHESTER/MAYO CLOUDY    36  35  96 S9G17     29.72S WCI  29
WINONA         CLOUDY    41  36  81 SW3       29.74F
AUSTIN         FOG       36  36 100 S10G20    29.70F VSB 1/4 WCI  28
ALBERT LEA     FOG       37  37 100 S9G17     29.69F VSB 1/2 WCI  31
DODGE CENTER   CLOUDY    36  36 100 SW12      29.70S FOG     WCI  27
PRESTON        FOG       35  35  98 S14       29.73F VSB 1/2 WCI  26
OWATONNA       CLOUDY    36  34  93 S12       29.70S FOG     WCI  27
FARIBAULT      CLOUDY    36  34  93 S12       29.69F FOG     WCI  27
$$

...ELSEWHERE IN MINNESOTA...


CITY           SKY/WX    TMP DP  RH WIND       PRES   REMARKS
MINNEAPOLIS    CLOUDY    35  33  92 S8        29.68F FOG     WCI  29
INTNL FALLS    CLOUDY    36  29  75 SE5       29.57F WCI  32
DULUTH         CLOUDY    34  30  85 SW9       29.63S FOG     WCI  27
RED WING         N/A     37  36  93 S3        29.71S FOG
REDWOOD FALLS  CLOUDY    37  34  89 S13       29.62F FOG     WCI  29
MANKATO        CLOUDY    36  32  87 S14G21    29.67F WCI  27
WORTHINGTON    CLOUDY    36  36 100 S18G25    29.62F VSB 3/4 WCI  25
FAIRMONT       CLOUDY    36  34  93 S15       29.67F WCI  26
$$

...SOUTHWEST WISCONSIN...


CITY           SKY/WX    TMP DP  RH WIND       PRES   REMARKS
LA CROSSE      CLOUDY    40  36  86 S9        29.76F WCI  34
PRAIRIE DU CHI CLOUDY    41  39  93 CALM      29.79F FOG
BOSCOBEL       CLOUDY    42  40  92 W5        29.80F FOG
LONE ROCK      NOT AVBL
PLATTEVILLE    CLOUDY    44  43  97 SW10      29.80F
FORT MC COY    CLOUDY    39  37  90 S5        29.77F
VIROQUA        CLOUDY   N/A N/A N/A S9        29.76F VSB 1/4
WIS DELLS      CLOUDY    39  38  96 SW10      29.77F FOG     WCI  33
$$

...ELSEWHERE IN WISCONSIN...


CITY           SKY/WX    TMP DP  RH WIND       PRES   REMARKS
MILWAUKEE      CLOUDY    44  42  93 SW13      29.82F FOG
MADISON        DRZL/FOG  41  40  96 S7        29.80F VSB 1
GREEN BAY      CLOUDY    38  36  92 S9        29.77F FOG     WCI  31
EAU CLAIRE     NOT AVBL
BLACK RVR FLS  CLOUDY    39  38  94 SW5       29.75F FOG
MEDFORD        CLOUDY    34  33  96 SW8       29.71F FOG     WCI  27
WAUSAU         FOG       34  34 100 S6        29.73S VSB 1/4 WCI  29
WIS RAPIDS     CLOUDY    37  33  85 S6        29.76F FOG     WCI  32
MARSHFIELD     FOG       36  35  96 SW6       29.73F VSB<1/4 WCI  31
RICE LAKE      CLOUDY    35  32  90 S9        29.72S FOG     WCI  28
$$

...NORTHEAST IOWA...


CITY           SKY/WX    TMP DP  RH WIND       PRES   REMARKS
DECORAH        FOG       39  39 100 SW10G17   29.75F VSB 1/2 WCI  32
MASON CITY     CLOUDY    40  40 100 S16       29.72F FOG     WCI  31
CHARLES CITY   FOG       39  39 100 SW10      29.76F VSB 1/4 WCI  32
OELWEIN        CLOUDY    45  45 100 SW10      29.77F FOG
$$

...ELSEWHERE IN IOWA...


CITY           SKY/WX    TMP DP  RH WIND       PRES   REMARKS
DES MOINES     MOSUNNY   56  44  64 SW15      29.76F
IOWA CITY      CLOUDY    50  49  96 S3        29.82F FOG
FORT DODGE     CLOUDY    43  39  87 S17G23    29.72F
$$

...NORTHERN ILLINOIS...


CITY           SKY/WX    TMP DP  RH WIND       PRES   REMARKS
CHICAGO-OHARE  CLOUDY    47  42  83 S12G22    29.87F
CHICAGO-MIDWAY CLOUDY    50  43  77 SW16G22   29.89F
MOLINE         CLOUDY    55  48  77 SW10      29.83F
ROCKFORD       CLOUDY    47  44  90 S9        29.86F FOG
PEORIA         CLOUDY    58  48  69 SW14      29.89F
$$

NOTE: "FAIR" INDICATES FEW OR NO CLOUDS BELOW 12,000 FEET WITH NO
SIGNIFICANT WEATHER AND/OR OBSTRUCTIONS TO VISIBILITY. WIND
SPEEDS ARE IN MILES-PER-HOUR.



USA.gov is the U.S. government's official web portal to all federal, state and local government web resources and services.